Voltar ao catálogo

STARLINK-35371

AtivoComunicaçõesVLEO
NORAD 66484·PAYLOAD·🇺🇸 United States

Lançado Nov 15, 2025 de Cape Canaveral Space Force Station

Loading…

Próximas Passagens (próximas 24 horas)

TLE

AtualizadoSource: CelesTrak SupGP

Época: Sep 15, 2026, 03:20 UTC

1 66484C 25262AE  26258.13937500  .00027650  00000+0  10012-2 0  2589
2 66484  43.0033 306.6732 0001540 268.2185 154.2793 15.27572936    11

Acompanhe STARLINK-35371 em tempo real com AllMySat

Download on the App Store